Wind_Speed
13 14 14 13 13 12 10 10 9 9 9 9 8 8 7 7 7 6 5 4 4 4 4 4 5 4 5 5 5 5 6 6 5 5 5 5 5 5 5 5 5 5 5 5 5 4 4 3 3
13 14 13 13 14 11 10 10 10 10 10 9 9 9 7 7 6 6 5 5 5 5 5 5 6 6 5 5 5 5 6 6 5 4 4 5 5 5 5 6 5 5 4 5 5 4 3 3 3
14 14 14 14 12 11 11 11 10 10 10 10 10 9 9 8 7 6 6 6 6 5 6 6 6 6 6 5 5 5 5 5 4 4 3 4 5 6 6 7 6 5 5 5 5 4 3 2 3
13 14 14 14 12 11 11 11 10 10 10 10 10 9 9 8 8 8 7 6 5 5 6 6 6 6 6 6 5 5 5 5 4 4 4 4 5 7 7 6 5 4 4 4 4 4 3 3 3
14 14 14 13 11 11 11 11 11 10 10 11 10 10 9 9 9 9 8 8 7 7 7 7 6 6 6 5 4 4 4 4 5 5 5 5 5 6 5 5 5 4 3 3 3 2 2 2 2
14 14 14 11 11 11 11 11 11 10 10 10 11 10 10 10 10 9 9 8 7 7 7 6 6 6 6 5 4 4 4 5 5 5 4 4 4 5 5 5 5 3 3 3 3 2 2 2 2
13 13 12 11 11 12 12 12 12 11 10 10 10 10 10 10 9 9 8 7 7 6 6 5 5 5 5 5 4 4 4 4 5 4 3 4 4 4 4 4 4 3 3 3 3 2 2 2 2
12 13 13 12 12 12 13 12 12 11 11 10 10 9 9 9 9 9 8 7 7 6 5 5 4 5 5 4 4 4 4 4 4 3 3 3 2 2 3 3 3 3 3 3 2 2 2 2 2
12 12 11 11 12 12 12 11 11 11 11 10 10 10 9 9 9 8 8 7 7 6 6 5 5 4 4 4 3 3 3 3 3 3 3 2 2 2 2 2 2 3 3 3 3 2 2 3 2
13 12 10 11 11 12 12 11 11 11 11 10 9 10 9 9 8 8 7 7 6 6 5 5 5 4 4 3 3 2 2 2 2 2 2 2 2 2 2 2 2 2 2 2 2 2 3 3 3
12 12 11 11 12 12 12 12 12 11 11 10 10 9 9 9 8 8 7 7 7 6 6 5 5 5 4 3 3 2 2 2 2 2 2 3 3 3 2 2 2 2 2 2 2 1 2 2 3
10 11 11 11 11 12 12 12 11 11 10 10 10 9 9 8 8 8 8 8 7 7 6 5 5 5 4 3 2 2 1 2 1 1 2 2 3 3 2 2 2 2 3 2 2 2 1 1 1
10 10 10 11 11 11 11 11 10 11 11 10 9 9 8 8 8 8 8 8 8 7 6 5 5 5 4 4 3 2 2 2 2 2 2 3 3 2 2 2 2 2 2 2 2 2 1 1 1
9 10 10 11 11 11 11 11 10 11 10 10 9 8 8 9 9 8 8 8 7 7 6 5 5 5 5 4 3 3 2 2 2 3 3 3 2 2 2 2 2 2 2 1 2 2 1 1 1
9 10 10 10 10 10 11 11 10 10 10 10 10 9 9 8 8 7 7 8 8 7 7 6 5 5 4 4 3 3 3 3 3 3 2 2 3 2 2 2 2 2 1 1 1 1 1 1 1
8 9 8 8 8 8 10 10 9 10 9 9 9 8 8 7 7 7 7 7 7 7 7 6 5 4 4 4 3 3 3 3 3 2 2 3 2 2 2 1 2 1 1 1 2 2 1 1 1
6 7 6 6 6 8 9 8 8 9 8 8 8 8 7 7 7 7 7 7 7 7 7 6 5 4 4 4 4 3 3 3 3 3 3 2 2 2 1 1 1 1 1 1 1 1 1 1 0
4 5 4 4 5 6 7 7 7 8 8 8 7 8 8 8 8 7 7 7 7 7 7 6 6 5 4 4 4 3 3 3 3 2 2 1 2 2 1 1 1 1 1 1 1 1 0 0 0
3 3 3 3 3 4 5 5 6 7 7 7 7 7 7 8 8 8 7 7 7 7 7 6 6 6 5 4 4 4 3 2 2 2 2 1 1 2 1 1 1 1 0 0 0 1 1 0 1
2 2 2 3 3 3 3 3 4 5 6 6 6 7 7 7 8 8 8 8 8 7 7 7 7 6 5 4 3 3 3 2 1 1 1 1 1 2 1 1 1 0 0 0 1 1 1 1 1
2 1 1 2 3 3 3 3 3 3 4 5 5 6 7 7 8 8 8 7 8 7 8 8 6 5 5 4 3 3 2 2 2 2 1 1 1 1 2 1 1 1 1 1 0 0 2 2 2
2 1 1 1 2 3 2 2 3 2 3 3 4 5 5 6 7 7 7 7 7 7 7 7 6 5 5 5 4 3 2 2 2 2 1 1 1 1 0 1 1 0 1 1 1 1 2 2 3
4 3 2 1 1 3 3 3 3 2 2 3 4 4 5 6 7 7 7 7 7 7 7 6 6 5 5 5 5 4 3 3 3 2 1 1 1 1 1 1 2 2 1 2 2 2 2 3 3
5 4 3 2 1 2 3 2 4 4 4 4 4 4 5 6 7 7 8 7 6 6 7 6 6 6 6 5 5 5 4 3 3 3 2 2 2 2 2 2 3 3 3 3 3 3 4 4 4
6 4 4 4 4 4 4 2 3 4 4 4 4 5 6 7 7 8 8 8 7 7 7 6 6 6 7 6 5 5 4 4 3 3 3 2 3 3 3 3 3 4 4 4 5 5 5 5 6
9 8 7 6 6 6 6 5 4 4 4 5 5 5 6 7 7 8 8 8 9 8 8 7 7 7 7 7 6 5 4 4 4 4 4 4 4 5 5 5 5 6 6 7 7 7 7 7 7
12 11 10 9 8 6 7 7 6 6 6 6 7 7 7 7 8 8 8 8 9 9 8 8 8 8 8 7 7 7 6 6 5 5 5 6 6 6 7 7 7 7 8 9 9 9 8 9 9
14 13 12 10 10 9 8 8 8 7 7 8 7 8 8 9 9 8 9 9 9 9 9 9 8 9 9 9 8 8 8 6 6 7 7 7 8 8 8 8 9 9 9 10 10 10 10 10 9
15 15 13 12 11 10 9 11 10 8 9 9 9 9 10 10 10 10 9 10 11 11 11 10 10 10 9 9 9 8 9 8 8 9 9 9 9 9 10 10 10 10 10 10 10 10 10 11 10
18 16 15 14 14 13 12 14 12 11 10 10 11 11 11 12 12 12 11 11 12 12 12 12 11 11 10 10 9 9 9 9 10 10 10 10 11 11 11 11 11 11 11 10 10 10 10 10 10
Wind_Direction
78 76 76 78 81 84 93 96 95 99 101 102 102 105 107 106 103 103 98 99 107 108 110 118 125 129 135 142 141 125 118 118 112 102 107 114 115 117 128 134 133 133 131 130 134 133 128 117 112
78 78 78 79 81 87 92 95 94 92 96 97 98 102 103 103 101 94 93 100 105 105 112 125 129 139 142 151 150 136 126 119 115 107 106 108 113 112 128 136 132 130 135 133 132 135 132 122 107
79 78 76 77 82 92 93 94 93 93 93 94 94 97 97 94 93 87 87 99 105 107 113 121 132 144 147 147 143 137 130 125 118 113 113 113 120 123 127 122 120 119 121 125 128 133 128 125 118
75 74 73 76 84 88 91 91 93 95 90 91 93 93 92 90 88 84 86 99 105 110 117 128 132 141 144 144 141 137 136 133 122 109 118 124 131 128 123 113 117 114 116 123 131 136 128 131 130
76 74 72 77 84 85 88 91 91 91 89 89 88 90 90 87 85 79 80 88 93 102 114 127 133 141 144 144 139 138 140 135 122 113 120 129 130 129 124 120 123 122 127 128 129 132 126 142 149
78 76 76 78 83 84 85 89 90 89 89 87 86 87 88 85 80 79 82 87 93 99 108 119 129 129 132 138 137 134 130 125 123 118 119 124 128 135 128 129 133 126 131 132 137 140 136 136 152
78 80 81 81 83 83 85 86 84 85 86 85 87 86 85 83 79 79 81 87 93 100 109 114 118 126 126 133 131 128 122 124 124 125 125 126 127 138 139 139 139 136 137 131 144 137 144 159 172
76 80 80 82 84 85 84 85 84 82 84 85 84 84 83 84 81 79 83 92 93 93 99 102 109 119 126 129 132 131 126 120 122 131 128 135 142 139 147 147 149 147 144 146 155 153 159 153 155
79 81 81 85 85 84 83 82 81 78 80 80 78 79 82 86 82 77 77 86 90 88 93 96 103 114 118 123 130 137 134 122 123 125 123 131 141 143 148 143 149 164 160 161 175 192 194 180 160
83 85 85 86 83 83 81 79 78 77 77 75 75 76 79 83 79 76 76 82 85 85 86 91 99 107 111 116 120 126 123 117 121 123 130 145 163 170 160 160 166 170 169 169 174 201 208 197 182
82 87 88 86 84 83 81 78 76 72 72 71 69 69 76 80 74 74 77 87 88 88 86 90 99 102 102 107 108 112 108 100 106 123 143 145 156 165 166 161 166 156 158 161 167 176 193 193 195
79 83 87 86 83 80 80 77 73 71 71 67 64 62 66 73 66 70 82 87 86 84 83 88 95 94 96 101 104 102 85 70 94 132 145 148 153 158 165 165 163 158 166 175 177 172 171 217 231
79 84 85 84 84 79 77 75 72 70 70 66 60 58 63 66 68 73 79 80 77 74 74 77 83 82 87 91 92 90 84 81 100 128 143 150 159 158 169 170 158 141 160 181 197 204 194 204 213
81 77 76 79 81 76 70 70 69 66 67 64 60 60 65 66 62 67 73 72 68 65 66 69 74 74 78 80 81 91 90 87 98 105 112 120 128 123 107 121 145 133 148 206 206 203 184 180 206
79 68 66 70 76 75 69 64 65 67 67 64 61 62 65 62 59 65 67 64 59 53 52 57 65 68 68 72 78 90 83 83 86 89 100 106 108 103 106 114 115 127 158 196 173 187 184 199 225
73 65 62 66 69 74 75 66 67 65 64 62 60 56 55 53 53 57 59 53 49 45 46 52 62 62 60 65 73 77 73 79 85 85 96 115 118 110 115 113 105 97 134 178 173 176 183 204 239
77 65 62 66 68 74 77 71 68 66 64 60 57 54 50 46 43 49 51 45 42 44 46 49 54 56 63 70 77 82 85 83 86 88 96 111 113 117 119 104 104 95 113 156 175 189 182 181 150
85 70 64 63 69 78 80 74 66 68 63 58 53 49 44 37 36 41 45 42 38 43 46 47 43 57 67 71 81 86 95 96 89 81 86 111 130 131 133 118 83 74 110 176 157 177 164 178 288
99 66 49 54 70 84 87 76 64 62 60 58 50 46 41 36 36 37 41 37 37 39 42 42 44 62 63 67 76 78 84 96 88 71 74 94 138 128 130 114 127 118 24 175 270 269 284 318 322
119 86 51 48 62 82 82 65 52 51 54 52 48 40 37 36 31 32 31 31 31 32 33 34 44 53 51 55 67 73 75 64 43 70 64 81 121 131 125 149 182 228 177 323 359 299 296 310 326
150 128 84 41 51 46 58 44 33 39 44 42 40 34 30 27 23 21 21 23 22 25 25 26 37 40 37 38 50 60 55 48 46 42 53 72 144 151 169 190 188 125 96 64 49 302 305 310 316
200 210 198 50 37 18 31 21 345 18 25 23 19 18 13 8 9 11 14 13 12 13 14 21 28 29 25 27 27 33 28 23 17 15 343 233 209 181 189 229 134 98 57 21 2 325 318 319 324
221 235 236 238 339 4 355 15 334 336 354 354 352 353 351 352 355 358 1 2 1 2 2 10 14 13 10 12 10 9 14 17 9 0 325 300 281 284 265 274 270 278 311 343 329 315 312 329 341
222 233 257 276 309 330 321 355 336 336 345 337 339 341 344 348 347 350 349 350 348 348 350 359 2 2 358 353 353 353 354 353 358 358 339 324 303 296 277 273 272 280 288 308 319 313 307 316 321
225 233 265 281 280 285 289 309 314 333 340 334 333 327 324 331 333 334 336 341 339 334 335 338 340 347 348 343 339 338 337 333 333 336 330 321 309 301 291 285 290 290 296 305 307 303 300 300 299
227 226 235 252 261 273 284 284 298 314 321 321 320 323 328 329 331 331 330 334 332 327 326 325 324 329 333 337 334 332 322 313 314 312 313 312 313 309 303 297 294 289 292 300 301 300 295 293 293
233 231 236 247 256 265 274 280 293 305 311 310 310 314 321 323 325 325 328 331 327 323 321 323 317 319 323 325 320 324 320 314 308 302 301 302 302 299 296 295 294 293 292 295 296 295 291 291 293
238 241 245 244 250 258 273 282 282 291 300 303 303 304 308 311 317 317 320 323 321 319 315 316 313 315 316 317 311 309 313 307 305 302 297 299 296 292 291 289 290 293 293 294 292 294 290 286 288
242 245 245 245 247 250 265 273 277 285 289 291 291 293 298 304 306 310 312 313 313 313 314 310 307 306 310 312 308 302 304 299 298 301 298 298 296 291 288 288 291 292 294 294 292 292 290 287 287
243 244 246 251 255 253 257 269 273 276 279 284 285 287 291 296 298 301 304 307 309 311 312 309 306 303 303 306 302 298 297 297 296 294 296 298 297 293 292 291 292 291 289 290 292 292 290 289 289
Height
5889 5888 5888 5888 5889 5889 5889 5888 5887 5887 5887 5886 5886 5886 5886 5886 5887 5889 5886 5884 5885 5884 5884 5884 5884 5884 5884 5885 5885 5885 5885 5885 5885 5885 5884 5884 5884 5883 5883 5883 5883 5884 5884 5885 5885 5885 5886 5886 5886
5891 5890 5891 5891 5891 5891 5891 5889 5888 5888 5888 5887 5886 5886 5886 5886 5886 5886 5885 5885 5885 5885 5885 5885 5885 5885 5885 5886 5886 5886 5886 5886 5886 5885 5885 5885 5884 5884 5883 5884 5884 5884 5885 5886 5886 5886 5887 5887 5887
5893 5892 5893 5892 5892 5892 5892 5890 5889 5889 5888 5887 5887 5887 5887 5887 5886 5886 5885 5885 5885 5885 5885 5885 5885 5885 5886 5886 5886 5886 5886 5886 5886 5886 5886 5885 5885 5884 5884 5885 5885 5886 5887 5887 5887 5887 5887 5887 5887
5895 5895 5895 5895 5894 5893 5892 5892 5890 5890 5889 5888 5888 5888 5888 5888 5887 5886 5886 5886 5885 5885 5886 5886 5886 5886 5886 5887 5887 5887 5887 5887 5887 5886 5886 5886 5885 5886 5885 5886 5887 5887 5887 5888 5888 5888 5888 5888 5888
5897 5897 5897 5897 5896 5895 5894 5893 5892 5891 5891 5890 5890 5889 5889 5889 5888 5887 5887 5886 5886 5886 5886 5887 5887 5887 5887 5887 5888 5888 5888 5888 5887 5887 5887 5886 5886 5887 5887 5887 5888 5888 5888 5888 5888 5888 5888 5888 5888
5900 5900 5901 5899 5898 5897 5895 5894 5893 5893 5892 5892 5891 5891 5890 5890 5889 5888 5888 5888 5887 5887 5887 5887 5887 5888 5888 5888 5888 5888 5888 5888 5888 5888 5888 5888 5887 5887 5888 5888 5888 5889 5889 5888 5888 5888 5888 5888 5888
5903 5903 5902 5901 5900 5899 5898 5896 5896 5895 5894 5894 5893 5892 5891 5891 5890 5890 5889 5889 5888 5888 5888 5888 5888 5888 5888 5889 5889 5889 5889 5889 5888 5888 5888 5888 5888 5888 5888 5888 5889 5889 5889 5888 5888 5888 5889 5889 5888
5904 5905 5905 5903 5902 5901 5900 5898 5898 5897 5896 5896 5895 5894 5893 5892 5892 5891 5890 5889 5889 5889 5889 5889 5889 5889 5889 5889 5889 5889 5889 5889 5889 5889 5889 5889 5889 5888 5888 5889 5889 5889 5889 5889 5889 5889 5889 5889 5889
5907 5909 5907 5906 5904 5903 5902 5901 5900 5899 5898 5897 5896 5896 5895 5894 5893 5893 5892 5891 5891 5890 5890 5890 5890 5890 5890 5890 5890 5890 5890 5889 5889 5889 5889 5889 5889 5889 5889 5889 5889 5889 5889 5889 5889 5889 5889 5888 5888
5909 5910 5909 5907 5906 5905 5904 5903 5902 5901 5900 5899 5899 5897 5896 5896 5895 5894 5893 5893 5892 5892 5891 5891 5891 5891 5890 5890 5890 5890 5890 5890 5889 5889 5889 5889 5889 5889 5889 5889 5889 5889 5888 5888 5888 5888 5889 5889 5888
5911 5911 5910 5908 5907 5907 5906 5905 5904 5903 5902 5901 5900 5899 5898 5897 5896 5895 5895 5894 5894 5893 5893 5892 5892 5891 5891 5891 5890 5890 5890 5890 5889 5889 5889 5889 5889 5889 5889 5889 5889 5889 5889 5889 5888 5888 5888 5889 5889
5913 5912 5911 5910 5909 5909 5908 5907 5906 5905 5904 5903 5902 5901 5900 5899 5898 5897 5896 5896 5895 5895 5894 5893 5893 5892 5891 5891 5891 5890 5890 5890 5889 5889 5889 5889 5889 5889 5889 5889 5889 5889 5889 5889 5888 5888 5888 5889 5889
5915 5914 5913 5912 5911 5911 5910 5909 5908 5907 5906 5905 5904 5903 5902 5901 5900 5899 5898 5897 5897 5896 5895 5894 5893 5893 5892 5892 5891 5891 5890 5890 5889 5889 5889 5889 5889 5889 5889 5889 5889 5889 5889 5889 5889 5889 5889 5889 5889
5917 5916 5915 5914 5913 5913 5912 5911 5910 5909 5908 5907 5906 5905 5904 5903 5902 5900 5899 5899 5898 5897 5896 5895 5894 5893 5893 5892 5892 5891 5891 5890 5889 5889 5889 5889 5889 5889 5889 5889 5889 5889 5889 5889 5888 5889 5889 5889 5889
5919 5919 5918 5916 5915 5915 5914 5914 5912 5911 5910 5909 5908 5907 5906 5905 5904 5902 5901 5900 5899 5898 5896 5895 5895 5894 5893 5893 5892 5891 5891 5890 5890 5889 5889 5889 5889 5889 5889 5889 5889 5889 5889 5888 5888 5888 5888 5888 5888
5921 5921 5921 5919 5918 5917 5918 5917 5915 5913 5912 5911 5910 5909 5908 5907 5905 5904 5903 5902 5900 5899 5898 5896 5895 5895 5894 5893 5892 5892 5891 5890 5890 5890 5890 5889 5890 5890 5890 5889 5889 5889 5889 5888 5888 5888 5888 5888 5888
5923 5924 5923 5921 5919 5918 5918 5918 5916 5915 5914 5913 5912 5911 5909 5908 5907 5905 5904 5903 5902 5900 5898 5897 5896 5895 5894 5893 5893 5892 5891 5891 5890 5890 5890 5890 5890 5890 5890 5890 5889 5889 5889 5888 5888 5888 5888 5888 5888
5925 5924 5924 5923 5921 5920 5919 5919 5918 5917 5916 5915 5913 5912 5911 5909 5908 5907 5905 5904 5903 5901 5900 5898 5897 5896 5895 5894 5893 5892 5892 5891 5891 5891 5890 5890 5890 5890 5890 5890 5890 5889 5888 5888 5888 5888 5888 5888 5887
5925 5925 5924 5923 5922 5921 5921 5920 5919 5918 5917 5916 5915 5914 5912 5911 5909 5908 5907 5905 5904 5902 5900 5899 5898 5897 5896 5895 5894 5893 5892 5892 5892 5891 5891 5890 5890 5890 5890 5890 5890 5889 5889 5889 5888 5888 5888 5888 5887
5925 5925 5925 5924 5923 5922 5922 5921 5920 5919 5918 5917 5916 5915 5914 5912 5910 5909 5908 5906 5905 5903 5901 5900 5898 5897 5896 5895 5895 5894 5893 5892 5892 5891 5891 5890 5890 5890 5890 5890 5890 5889 5889 5889 5888 5888 5888 5888 5887
5925 5925 5925 5924 5923 5923 5923 5923 5921 5920 5919 5918 5917 5916 5915 5913 5912 5910 5909 5907 5906 5904 5902 5901 5899 5898 5897 5896 5895 5894 5894 5893 5892 5891 5891 5891 5890 5890 5890 5890 5889 5889 5889 5888 5888 5888 5888 5887 5887
5924 5924 5924 5924 5924 5924 5924 5925 5923 5921 5920 5919 5918 5917 5915 5914 5913 5911 5909 5908 5907 5905 5903 5902 5900 5899 5898 5897 5896 5895 5894 5893 5893 5892 5891 5891 5890 5890 5890 5889 5889 5889 5889 5888 5888 5887 5887 5887 5886
5923 5924 5924 5924 5924 5925 5924 5925 5924 5922 5921 5920 5919 5917 5916 5915 5913 5912 5911 5909 5907 5906 5904 5903 5901 5900 5898 5897 5897 5895 5894 5893 5892 5891 5891 5890 5890 5890 5890 5889 5889 5889 5888 5888 5888 5887 5887 5886 5886
5922 5923 5923 5924 5925 5926 5925 5924 5924 5922 5921 5920 5919 5917 5916 5915 5914 5912 5911 5909 5908 5906 5905 5903 5902 5900 5899 5898 5897 5895 5894 5893 5892 5891 5891 5890 5890 5890 5889 5889 5889 5888 5888 5888 5887 5887 5886 5886 5885
5921 5923 5925 5926 5926 5926 5924 5923 5924 5922 5920 5919 5918 5917 5916 5915 5914 5912 5911 5909 5908 5906 5905 5903 5902 5901 5899 5898 5896 5895 5894 5893 5892 5891 5891 5890 5890 5889 5889 5888 5888 5887 5887 5886 5886 5886 5885 5885 5884
5919 5921 5924 5925 5926 5925 5923 5922 5923 5921 5920 5919 5918 5917 5916 5914 5913 5912 5911 5909 5908 5906 5905 5903 5902 5901 5899 5898 5896 5895 5894 5893 5892 5891 5890 5890 5889 5889 5888 5887 5887 5886 5886 5885 5885 5884 5884 5883 5883
5916 5918 5920 5922 5922 5923 5923 5921 5921 5919 5919 5918 5917 5916 5915 5914 5912 5911 5910 5909 5907 5905 5904 5903 5902 5900 5899 5897 5896 5895 5893 5892 5891 5891 5890 5889 5889 5888 5887 5886 5886 5885 5884 5884 5883 5882 5882 5881 5880
5914 5915 5917 5919 5919 5921 5921 5920 5920 5918 5917 5916 5915 5915 5914 5913 5912 5910 5909 5908 5906 5905 5903 5902 5901 5899 5898 5897 5895 5894 5892 5891 5890 5890 5889 5888 5887 5886 5886 5885 5884 5883 5883 5882 5881 5880 5879 5879 5878
5910 5912 5913 5914 5916 5918 5920 5920 5916 5915 5915 5914 5913 5913 5912 5911 5910 5909 5908 5906 5905 5903 5902 5900 5899 5898 5896 5895 5894 5893 5891 5890 5889 5888 5887 5886 5885 5885 5884 5883 5882 5881 5880 5879 5878 5877 5876 5876 5875
5906 5907 5909 5911 5912 5913 5915 5917 5913 5912 5912 5912 5911 5910 5910 5909 5908 5907 5906 5905 5903 5902 5900 5898 5897 5896 5894 5893 5892 5891 5890 5889 5888 5887 5886 5885 5884 5883 5882 5881 5880 5879 5878 5877 5876 5875 5874 5873 5872